Location: *
(44.1392°N, 4.8079°E)
Time: 14:07:12
(UTC+00:00)

Lacrosse 5 rocket - Pass Details

Date: 22 October 2021
Orbit: 459 x 633 km, 57.0° (Epoch: 04 December)

Event Time Altitude Azimuth Distance (km) Brightness Sun altitude
Exits shadow 05:03:41 12° 306° (NW) 1,748 3.4 -11.6°
Maximum altitude 05:06:10 19° 345° (NNW) 1,450 3.3 -11.1°
Drops below altitude 10° 05:09:21 10° 31° (NNE) 1,966 4.5 -10.6°
Sets 05:12:17 0° 49° (NE) 2,897 5.7 -10.0°
